CZ-6A DEB, 54422

Orbit data source: Space-Track

CZ-6A DEB, 54422 is space debris in SSO originally from a launch on Fri, 11 Nov 2022 UTC launched from the Taiyaun Space Center, China (TSC). Debris objects in space refer to the collection of defunct objects orbiting the Earth. Examples of debris include non-operational satellites, rocket bodies, and fragments generated from explosions, collisions, or faulty payload assembly.

Loading next visibility...
Identifier
54422, 2022-151EW
Orbit
SSO
Country
Flag of CNCN / PRC
Related business
Manufacturer
SAST
Mission
Spacecraft
Bus & Motor
Unknown
Mass
Unknown
Launch date (UTC)
2022-11-11 (3 years ago)
Launch vehicle
Unknown
Launch site
Taiyaun Space Center, China (TSC)
Object type
Payload
Rocket body
Debris
Shape & HBR
Unknown shape, 0.5 m
Radar Cross Section
Medium (>0.1 m² and <1 m²)

Expand to show TLE details & history
Last TLE update: 14 hours ago

TLE from 14 hours ago
0 CZ-6A DEB
1 54422U 22151EW  26130.03464785  .00000234  00000-0  13570-3 0  9995
2 54422  98.8075 145.8489 0038031 103.6504 256.8910 14.17715975180220
Epoch: 2026-05-10T00:49Z
TLE epoch observation values (Epoch: 2026-05-10T00:49:53.574Z)
Latitude
-0.00003°
Longitude
-94.46784°
Altitude
842.316 km
Speed
7.428 km/s
True Right ascension
09h 43m 23s
True Declination
0° 00' 00"
Sunlit
Object was in daylight at epoch
Visualization orbit readout
Latitude
Unknown
Longitude
Unknown
Altitude
Unknown
Speed
Unknown
Apparent Right ascension
Unknown
Apparent Declination
Unknown
Sunlit
N/A
Visualization observer readout
Local Sidereal Time
22:56:13
Azimuth
Unknown
Elevation
Unknown
Doppler factor
Unknown
Orbital elements
Apogee altitude
857.668 km
Perigee altitude
802.84 km
Semi-major axis
7,208.391 km
Eccentricity
0.0038
Inclination
98.8075°
RAAN
145.8489°
Arg. of periapsis
103.6504°
True anomaly
256.46701°
Mean anomaly
256.891°
Eccentric anomaly
256.67896°
Mean motion
3.54638 °/min
Orbital period
101.51 mins
BSTAR
0.0001357
Loading maneuver chart data...
Computing Atmospheric mass density...

Documentation

Showing up to 5 results
|